Zurück zum Katalog

ONEWEB-0414

AktivKommunikationPO
NORAD 50491·PAYLOAD·🇬🇧 United Kingdom

Gestartet Dec 27, 2021 von Baikonur Cosmodrome

Loading…

Nächste Überflüge (nächste 24 Stunden)

TLE

AktuellSource: CelesTrak SupGP

Epoche: Sep 14, 2026, 21:07 UTC

1 50491C 21132Y   26257.88036296 -.00000037  00000+0 -94376-4 0  2573
2 50491  87.9169 317.6213 0002151  99.4670  13.1396 13.18685525    16

Verfolge ONEWEB-0414 in Echtzeit mit AllMySat

Download on the App Store